Theta_e
338 337 336 336 336 336 337 336 335 335 334 332 333 335 335 334 335 334 334 334 334 335 335 336 336 336 336 337 337 336 335 335 334 334 335 336 337 337 336 335 335 335 335 335 335 335 335 334 334 335 333 331 332 332 331 331 331 331 332 331 331 331 330 330 331 331 331 330 330 330 329 329 330 330 330 326 323 326 328 328 328 328 328 328 327
337 337 336 336 336 336 336 336 335 335 334 333 332 335 335 334 334 334 333 333 333 334 334 335 335 336 336 336 336 336 334 334 333 333 334 334 334 334 333 333 333 333 334 334 334 334 334 333 333 334 333 331 332 333 332 332 331 330 331 331 330 330 330 330 331 331 330 330 330 330 328 327 328 329 329 326 323 326 327 327 328 328 329 328 327
337 336 336 336 336 336 336 335 335 335 334 334 334 334 334 335 335 335 334 334 333 333 333 334 334 335 335 335 335 335 335 335 334 333 333 333 332 332 333 332 332 332 331 331 331 332 333 333 332 333 333 332 332 332 332 332 331 330 330 331 330 329 328 328 330 331 331 331 330 330 329 328 327 327 328 326 325 326 327 328 328 328 329 328 327
337 335 335 335 335 336 335 335 335 335 334 334 334 335 334 334 335 335 335 335 335 334 333 333 333 334 334 334 334 335 335 335 334 332 332 333 332 332 333 332 332 332 331 330 331 331 332 332 332 333 332 331 332 331 331 331 332 330 330 330 330 329 327 327 329 330 331 331 330 330 330 329 330 329 328 327 325 326 328 329 329 329 329 328 327
336 335 335 335 335 335 335 335 334 334 333 334 334 335 335 334 334 335 334 335 336 335 335 334 334 334 334 335 335 335 335 334 333 331 330 332 333 333 333 333 333 332 331 331 331 331 331 332 332 332 331 331 331 330 330 331 331 330 329 330 330 329 328 328 329 329 330 331 330 330 330 330 330 329 328 328 326 327 328 328 329 329 328 328 327
333 333 333 333 334 334 334 333 332 332 332 332 332 332 332 333 333 334 334 335 336 336 336 336 335 335 335 336 335 335 334 333 332 331 330 330 332 333 333 333 333 333 332 331 331 331 331 330 330 330 330 330 330 329 328 329 330 330 330 330 329 327 328 328 329 329 329 329 329 329 330 330 330 329 329 329 328 327 327 327 328 328 328 328 328
326 326 327 327 328 330 330 329 329 329 329 329 329 328 329 330 331 332 333 334 336 336 336 336 336 336 335 336 335 336 335 333 332 332 331 330 331 333 333 332 333 333 332 331 332 331 331 330 330 330 330 329 329 328 328 329 330 330 330 330 329 327 328 328 328 329 329 329 328 328 328 328 329 329 329 329 329 328 327 327 328 328 328 328 328
321 321 321 322 322 323 324 324 324 325 326 327 328 327 328 328 328 329 331 332 334 335 336 335 335 335 335 335 335 335 334 333 332 332 331 330 331 332 332 331 332 332 331 332 332 331 330 330 329 329 329 329 329 329 328 329 330 329 329 330 330 329 329 329 328 328 329 329 328 328 328 327 329 330 330 330 330 329 327 327 327 327 328 328 328
319 318 318 318 318 319 319 320 320 321 323 324 325 326 327 328 328 328 329 329 330 332 333 333 333 333 333 333 334 334 333 332 332 331 331 330 331 332 331 331 331 331 331 332 331 330 330 329 329 329 329 329 329 329 328 328 328 328 329 330 330 329 329 329 329 328 329 330 329 329 329 329 330 330 330 330 330 328 327 327 327 327 327 328 328
316 316 316 316 316 316 316 316 317 318 319 320 322 323 324 326 327 328 328 328 328 330 331 331 331 331 332 332 332 333 332 331 331 331 331 331 331 332 331 330 330 331 332 331 330 330 330 329 329 330 329 329 329 329 328 328 329 330 330 330 330 330 329 329 329 329 329 330 330 329 329 330 330 329 329 329 330 330 328 327 327 327 327 328 328
314 314 314 314 314 314 314 314 314 315 316 317 319 319 320 322 324 326 327 327 327 328 328 330 330 331 332 332 332 332 332 331 331 331 331 331 331 331 331 331 331 331 331 330 330 329 329 329 329 330 329 330 330 330 330 329 329 330 331 331 330 329 329 329 329 329 329 329 330 329 330 330 330 330 330 329 330 330 329 328 328 328 328 328 327
313 312 312 312 312 312 312 312 312 313 314 315 316 316 317 319 320 322 324 325 326 326 327 328 329 330 332 332 333 332 332 332 331 330 330 330 331 331 330 331 331 331 331 331 329 329 329 329 330 330 330 330 331 331 331 330 329 330 331 331 330 328 329 329 328 329 329 329 329 330 330 331 330 330 330 330 331 330 329 328 328 328 328 328 327
311 311 311 311 311 311 311 311 311 312 312 312 313 314 315 316 317 318 320 323 324 325 326 326 327 328 330 331 332 332 331 331 330 329 329 330 330 330 330 330 331 331 332 331 329 329 329 329 330 331 331 331 331 330 331 331 329 329 331 332 331 329 329 329 329 329 329 328 329 330 330 330 330 330 330 330 331 330 329 329 329 329 329 328 327
311 310 310 310 310 310 310 310 310 310 311 311 311 312 313 314 315 317 319 321 322 324 325 326 326 327 327 328 330 330 330 329 329 328 328 329 330 329 329 330 331 331 331 331 330 329 329 329 330 331 330 330 330 330 331 330 328 328 331 332 331 331 330 330 329 329 329 329 329 330 330 330 330 329 328 329 330 329 329 330 328 328 328 327 326
310 309 309 310 309 309 309 309 309 309 310 310 310 310 311 312 314 315 317 319 320 322 325 325 326 326 326 326 327 328 328 328 328 327 327 328 330 330 330 330 330 330 331 331 331 330 330 330 330 330 330 329 330 329 330 330 329 329 331 331 331 331 330 330 330 330 329 329 329 330 330 330 330 329 328 328 329 329 329 329 328 327 326 327 326
309 308 308 309 309 308 308 308 308 308 309 309 308 309 310 310 312 314 317 319 319 321 323 324 325 326 326 326 326 326 327 327 327 327 327 328 329 329 330 330 330 330 330 330 330 330 330 330 330 330 330 330 330 329 329 330 330 330 331 331 331 330 330 330 330 330 330 329 329 329 329 329 330 329 328 328 328 329 329 328 328 327 327 326 325
308 308 308 308 308 308 308 307 307 307 307 307 307 308 308 309 310 312 315 318 318 319 322 322 323 325 326 326 327 326 326 327 327 327 327 327 327 327 328 330 330 330 330 330 330 329 329 329 329 330 330 330 331 330 330 330 331 330 330 330 330 330 330 330 330 330 330 329 329 329 328 328 329 329 328 328 328 328 328 328 328 328 328 327 325
307 307 308 308 307 307 307 307 307 306 306 306 306 307 307 308 308 309 311 313 315 317 320 321 323 324 325 326 326 327 327 327 327 327 327 327 327 327 328 329 330 330 330 329 329 329 328 329 329 329 330 331 331 330 330 331 331 330 329 330 330 330 330 330 330 330 330 329 329 329 329 329 330 329 329 329 328 327 328 328 328 328 328 328 326
307 306 307 307 307 307 307 306 306 306 306 306 306 306 307 307 308 308 309 310 312 315 318 321 323 324 325 325 326 326 327 327 327 327 327 328 327 327 328 329 330 330 329 329 329 329 329 329 329 330 330 331 331 330 330 330 330 329 328 329 330 330 329 329 329 329 330 329 329 329 329 329 330 330 329 329 328 326 327 327 327 328 328 327 328
307 306 306 307 306 306 306 306 306 306 306 306 306 306 306 307 307 308 308 309 310 313 315 318 321 323 324 324 325 326 326 326 326 327 327 327 328 328 329 329 329 329 329 329 329 329 329 329 330 330 331 331 330 330 330 330 329 328 328 330 330 329 329 329 329 329 329 329 329 329 329 329 329 329 330 329 327 326 327 327 327 328 327 327 328
306 305 306 306 305 304 304 304 305 305 305 305 305 306 306 306 307 307 308 308 308 310 311 313 316 318 320 322 323 325 326 326 326 326 326 326 327 328 328 328 329 329 329 329 329 329 329 330 330 331 331 331 330 330 331 330 329 329 328 329 329 329 329 329 329 329 329 329 329 330 330 329 329 329 330 328 327 327 326 326 326 326 326 326 326
304 304 305 304 303 303 303 303 304 304 304 304 305 305 305 306 306 306 307 307 307 308 309 310 312 313 316 319 321 324 326 326 326 326 325 326 326 327 328 328 329 329 329 329 329 329 330 330 330 331 331 330 330 330 331 330 329 329 329 329 329 329 329 329 329 329 329 329 329 329 330 329 329 329 329 328 327 327 325 325 325 325 325 325 324
303 303 304 303 303 303 303 303 303 303 303 304 304 304 305 305 305 306 306 306 307 307 308 309 310 311 313 316 318 321 324 326 326 326 325 325 326 327 327 328 329 329 329 329 329 330 330 330 330 330 331 330 330 330 330 330 329 329 329 329 329 329 329 329 329 329 329 329 329 329 329 329 328 329 329 328 328 327 325 325 324 323 323 323 323
302 303 302 302 302 302 302 302 302 303 303 303 303 304 304 304 305 305 305 306 306 306 307 308 309 310 311 313 315 317 321 323 325 326 326 325 326 327 327 327 328 329 329 329 329 330 330 330 330 330 330 330 330 330 330 331 330 329 329 329 328 329 329 329 329 329 329 329 328 329 329 329 328 328 329 328 328 327 326 324 324 323 322 322 321
301 302 302 302 302 302 302 302 302 302 302 302 303 303 303 304 304 304 305 305 306 306 306 306 307 308 309 311 313 315 317 320 323 324 325 325 325 325 325 325 327 328 329 329 329 330 330 330 330 330 330 330 330 330 330 331 330 330 329 328 328 329 329 329 329 329 329 329 329 329 329 329 329 329 329 329 328 328 326 325 324 323 322 321 320
301 301 302 302 302 302 302 302 302 302 302 302 302 302 302 303 303 304 304 304 305 305 306 306 306 307 308 309 311 313 315 318 321 323 324 325 324 324 325 325 326 327 328 328 328 329 329 330 330 331 331 331 331 330 330 330 330 330 329 328 329 329 329 329 329 328 328 328 329 329 329 329 329 329 329 329 329 328 327 326 326 324 323 321 320
301 301 301 302 302 302 302 302 302 302 302 302 302 302 302 302 303 303 304 304 304 305 305 306 306 306 307 308 309 311 312 315 319 321 323 324 324 324 324 325 326 328 327 327 327 328 329 329 330 331 331 331 330 330 330 329 329 330 330 329 328 328 328 328 328 328 328 328 328 328 329 329 328 329 329 329 329 328 327 327 327 326 324 322 321
301 301 301 301 302 302 302 302 302 301 301 302 302 302 302 302 302 302 303 304 304 304 305 305 305 306 306 306 307 309 310 312 316 320 322 323 324 324 325 325 325 327 327 326 326 327 327 328 330 331 331 331 330 329 329 329 328 329 329 329 328 328 327 327 327 327 327 327 328 327 328 328 328 329 329 329 329 328 328 328 327 327 326 324 322
301 301 301 301 302 302 302 302 302 301 302 301 301 301 301 301 302 302 302 303 303 304 304 305 305 305 305 306 306 308 309 310 314 318 320 322 323 324 325 325 325 326 326 326 325 325 326 327 329 330 330 330 330 329 329 329 328 328 328 328 327 327 327 326 326 326 326 327 327 327 327 327 328 328 328 329 329 327 328 328 328 327 326 326 325
301 301 301 301 302 302 301 302 302 302 302 302 302 302 301 301 301 301 302 302 303 304 304 304 305 305 305 305 306 307 307 308 311 315 318 320 322 323 324 324 325 325 325 325 324 324 325 326 328 329 330 330 329 329 328 328 328 328 327 328 327 327 327 326 326 326 326 326 327 327 327 327 327 327 328 329 329 327 327 328 328 327 326 327 326
301 300 301 302 302 301 301 302 301 301 301 301 301 302 301 301 301 301 301 301 302 303 304 304 304 304 304 305 305 306 306 307 308 311 315 317 320 323 323 324 324 325 325 324 324 323 324 325 327 328 329 328 328 328 327 328 328 328 327 328 328 327 327 327 327 326 326 326 327 327 327 327 327 327 327 328 328 328 328 328 328 327 327 327 326
300 300 300 301 301 301 301 301 301 301 301 301 301 301 301 301 300 300 300 301 302 302 303 304 304 304 304 304 304 304 305 305 306 308 310 313 316 319 321 322 323 323 323 324 323 322 322 324 325 326 327 327 327 327 327 327 327 327 327 327 327 327 327 327 327 327 326 326 326 327 326 326 326 326 327 327 327 328 328 328 328 328 327 326 325
300 300 300 301 301 301 301 301 301 301 300 300 300 301 301 301 300 300 300 300 301 301 302 303 304 303 303 303 303 304 304 304 304 305 307 310 312 314 315 317 318 320 320 321 321 321 321 322 323 324 325 325 325 326 326 327 326 326 326 327 326 327 327 327 327 327 327 326 326 326 325 325 326 326 327 327 327 327 327 328 328 327 326 326 325
300 300 300 301 301 301 300 300 300 300 299 299 299 300 300 301 300 300 300 300 301 301 302 303 303 303 303 303 303 303 303 303 303 303 304 305 307 309 310 311 313 314 314 314 315 316 317 318 320 321 323 323 324 325 326 326 326 326 326 326 325 325 325 326 327 327 326 326 326 325 325 325 325 326 326 326 326 326 326 326 324 323 323 322 322
299 300 300 300 300 300 300 299 299 299 299 299 299 299 300 300 301 301 300 300 300 301 301 302 303 303 302 303 303 302 303 303 302 302 302 302 303 305 306 307 307 308 308 308 308 310 311 313 315 316 319 320 321 322 324 325 325 325 326 326 324 323 323 324 325 326 326 326 326 326 326 326 326 326 326 326 325 324 321 319 318 316 316 316 316
300 300 300 299 299 299 299 298 298 299 299 299 299 299 299 300 300 300 301 300 300 300 301 302 302 302 302 302 302 302 302 302 302 302 302 302 302 302 303 304 305 305 305 305 306 306 307 308 310 311 313 316 318 320 321 323 324 325 325 324 323 322 322 323 324 325 326 326 326 325 326 326 327 327 326 324 323 320 317 314 313 311 310 311 311
299 299 299 298 298 298 298 297 298 299 299 299 299 299 299 299 299 300 300 301 300 300 300 301 302 302 302 302 302 302 302 302 302 302 302 302 301 301 302 303 304 304 304 304 304 303 304 305 307 308 310 311 314 317 319 320 321 323 323 322 321 321 321 322 323 324 325 325 325 325 325 325 325 326 323 320 318 317 314 311 310 308 307 307 306
299 299 299 298 298 298 298 297 298 299 299 299 299 299 299 299 299 299 300 300 300 299 300 301 301 301 302 302 302 302 302 302 302 302 302 301 301 301 301 301 302 302 302 303 303 303 303 303 303 304 306 308 310 313 316 318 318 320 321 320 320 320 320 320 320 321 322 322 323 324 323 322 323 322 320 316 315 314 312 310 309 308 307 305 303
299 299 299 299 298 298 297 297 298 299 299 299 299 299 299 299 299 299 299 299 299 299 299 300 301 301 301 302 302 302 302 302 302 302 302 302 301 301 301 301 301 301 301 301 302 302 302 302 302 302 302 304 305 307 311 315 316 317 318 318 319 319 318 317 316 316 317 317 318 319 319 319 319 318 315 313 312 312 312 311 312 311 308 304 303
299 299 299 299 298 297 298 298 298 299 299 299 299 299 299 299 299 299 299 298 298 298 297 298 300 301 301 301 301 302 302 302 302 302 302 302 301 301 301 300 300 300 300 300 300 300 300 300 301 301 301 301 301 302 306 310 313 314 315 316 317 318 316 313 311 311 311 311 311 312 313 315 315 313 311 310 310 311 312 312 312 311 309 306 304
299 299 298 298 297 297 298 298 298 299 299 299 299 300 299 299 299 298 298 298 298 298 297 297 298 300 301 301 301 301 301 301 301 301 301 301 301 301 300 300 300 300 300 299 298 298 298 298 299 300 300 301 300 299 301 306 309 310 311 312 313 314 314 311 307 306 306 305 306 307 308 310 311 309 309 310 310 310 311 311 311 311 309 307 305
299 298 297 297 296 296 297 298 298 299 299 299 299 300 300 299 299 298 298 298 299 299 298 297 297 298 300 301 301 301 301 301 301 301 301 301 300 300 300 300 300 299 299 299 298 298 298 298 298 298 299 300 300 299 300 303 305 306 306 307 307 307 309 310 307 304 302 302 302 302 303 306 308 307 307 308 309 309 309 310 309 308 307 305 304
298 298 296 296 297 297 297 297 298 299 299 299 299 300 300 299 298 297 298 299 299 299 299 298 297 297 298 299 300 301 301 300 301 301 301 301 300 300 300 299 300 299 299 298 298 298 297 298 298 298 298 298 299 299 300 301 302 303 303 304 303 303 304 307 305 302 301 300 300 300 300 302 304 305 305 305 306 306 306 306 305 304 303 303 302
298 297 296 296 297 297 297 297 297 298 299 299 299 300 300 299 298 297 298 299 299 299 299 299 298 297 297 297 298 299 300 300 300 300 300 300 300 300 300 299 299 299 299 298 298 298 297 297 298 298 298 298 298 298 299 300 301 301 301 302 302 301 302 303 302 301 301 301 301 301 301 301 302 302 303 303 303 303 303 302 302 301 301 301 301
297 296 296 296 296 296 297 297 297 298 299 299 299 299 299 299 298 297 297 298 298 299 299 299 298 298 298 297 297 298 299 300 300 300 300 300 300 300 300 299 299 298 298 298 298 297 297 297 297 297 297 297 297 298 299 300 300 301 301 301 301 301 302 302 302 301 301 301 301 301 302 302 302 302 302 302 302 301 301 300 300 300 300 300 300
296 296 296 296 296 296 297 297 297 298 298 298 299 299 299 299 298 298 297 297 298 298 298 298 298 298 298 298 297 297 298 299 299 299 299 300 299 299 299 299 299 298 298 298 297 297 296 296 297 297 297 298 298 298 298 299 299 300 301 301 301 301 301 301 301 300 300 301 301 302 302 302 302 302 302 301 300 300 300 300 300 300 299 299 299
294 295 296 296 296 297 297 297 297 297 297 298 298 298 299 299 299 298 298 298 298 297 297 298 298 298 297 297 297 296 297 297 298 298 298 299 299 299 299 299 298 298 298 298 297 297 296 296 296 296 296 297 298 298 298 298 299 299 300 300 300 300 300 300 300 299 299 299 300 300 300 300 300 300 300 300 299 299 299 299 299 299 299 298 297
294 295 296 296 296 296 296 297 297 296 296 297 297 297 298 299 299 299 298 298 298 298 297 297 298 298 297 297 297 296 296 297 297 297 297 297 297 298 298 298 298 298 298 298 298 297 297 296 295 295 295 296 296 297 298 298 298 299 299 300 300 300 299 299 299 299 298 298 298 298 298 298 298 297 297 297 297 298 298 298 298 298 297 296 295
294 295 296 296 295 294 295 296 296 296 296 296 296 296 297 297 298 299 298 298 299 298 297 297 297 297 297 297 297 296 296 296 296 296 296 296 296 297 297 297 297 297 297 297 297 297 297 296 295 295 295 295 295 295 296 297 297 298 298 298 298 298 299 298 298 298 298 298 298 297 297 297 297 297 296 296 296 296 295 295 295 295 294 294 293
294 295 296 295 294 294 294 295 296 296 296 296 296 296 296 296 297 298 299 298 299 298 297 297 297 297 297 296 296 296 296 296 296 296 296 296 296 296 296 296 296 296 296 296 296 296 296 296 296 296 295 295 295 295 295 296 296 297 297 297 296 296 296 296 296 297 296 296 296 296 296 296 296 296 295 295 294 294 294 293 293 293 292 292 292
294 295 295 295 295 294 294 295 296 296 295 295 295 295 296 296 297 298 298 298 298 298 297 297 297 297 297 296 296 296 296 296 296 296 296 296 297 296 296 296 296 296 296 296 296 296 296 296 296 296 296 295 295 295 295 295 296 296 296 296 295 295 295 296 296 296 296 295 295 295 295 295 294 294 294 294 293 293 293 292 292 292 292 292 292
Wind_Speed
5 6 6 7 7 6 4 4 5 7 8 9 7 5 3 2 1 2 2 2 3 6 7 9 12 11 12 14 14 14 16 16 14 14 14 17 19 14 12 14 15 16 18 18 19 21 19 19 20 19 21 23 21 19 20 20 20 19 16 15 14 13 11 12 13 11 10 9 8 8 8 7 8 11 13 13 12 12 10 8 8 7 6 6 4
5 6 7 7 7 6 4 5 7 8 9 10 8 5 3 3 3 3 2 1 1 4 6 9 12 12 11 11 11 11 13 13 13 12 12 16 20 16 13 15 16 16 17 18 19 21 19 17 19 21 23 26 22 20 20 20 19 19 19 18 15 15 12 11 14 13 11 10 9 7 5 4 5 10 14 14 13 13 12 9 9 8 7 6 5
4 5 6 7 7 7 6 7 8 9 10 10 9 6 5 4 3 3 2 0 1 2 5 8 10 11 12 11 11 11 11 11 11 10 10 13 19 18 15 15 18 18 16 17 20 20 18 17 20 22 25 27 24 21 20 19 19 19 20 19 15 14 12 12 15 13 11 12 10 6 4 4 3 7 12 13 14 14 12 11 9 9 9 7 5
6 6 6 7 8 8 8 9 10 11 11 11 9 8 7 7 6 4 1 1 1 0 2 6 8 10 12 12 12 12 10 9 8 8 10 12 16 19 18 16 18 18 13 13 18 19 18 19 21 22 24 26 26 24 20 18 19 19 19 19 17 14 12 14 18 15 12 13 8 4 4 5 3 5 8 11 16 14 11 12 11 10 9 8 7
8 7 7 8 9 10 10 10 11 12 12 11 10 10 9 9 9 8 7 4 1 3 4 5 7 9 11 10 10 10 8 8 10 11 13 14 14 17 17 16 17 16 11 10 15 17 17 19 22 22 22 23 24 24 21 18 19 18 17 18 18 15 14 15 18 18 16 14 9 5 4 3 3 8 8 7 14 15 13 13 13 11 10 9 8
11 11 10 11 11 11 12 12 11 11 11 10 12 13 12 11 10 8 8 8 6 6 6 5 7 10 11 11 11 11 11 14 16 16 15 14 16 17 17 14 14 14 11 10 12 15 16 17 18 19 19 20 22 22 21 19 19 18 18 18 17 18 18 16 17 18 16 16 14 9 6 3 4 10 8 4 8 11 12 12 12 12 11 10 9
13 14 15 16 16 16 16 17 16 14 13 12 14 15 14 13 13 11 9 8 5 5 5 5 6 8 10 10 11 12 11 13 13 12 12 14 16 17 17 16 14 13 12 12 12 14 16 16 14 15 16 18 19 18 18 19 18 19 18 18 18 20 20 18 18 18 15 16 16 13 8 5 8 11 8 5 6 7 9 10 11 11 12 11 10
12 13 15 18 19 19 18 19 19 18 17 16 15 14 13 12 12 12 10 9 6 5 6 7 7 6 8 10 12 12 9 8 8 9 13 16 17 18 18 18 15 13 12 11 11 12 15 14 11 13 16 17 17 15 16 17 18 18 16 16 19 21 21 19 19 20 18 16 17 14 8 6 10 11 9 8 7 6 7 8 9 9 10 12 11
13 12 14 16 18 20 19 19 22 22 21 19 17 14 12 11 11 11 11 10 9 8 9 10 9 7 7 9 12 13 10 7 8 12 16 17 18 17 16 18 16 14 11 10 9 9 13 12 10 12 14 16 17 15 16 17 17 17 16 17 20 22 22 19 17 19 20 18 18 16 9 7 9 9 8 8 6 7 7 7 9 8 8 11 11
12 12 14 15 16 17 18 22 26 26 24 23 22 20 17 15 14 12 12 12 11 9 8 8 9 7 7 9 12 14 13 10 10 12 15 15 17 14 13 15 15 14 11 8 8 10 12 12 12 13 14 15 16 16 17 18 18 17 17 19 22 21 20 17 15 18 19 18 18 18 13 10 10 8 9 9 6 7 7 9 12 10 9 11 11
11 12 16 17 16 18 20 23 26 27 28 27 26 25 22 20 19 15 13 13 11 10 9 9 9 7 8 9 12 13 12 12 11 12 12 14 17 14 11 12 13 14 13 9 11 13 13 14 15 14 14 15 15 16 17 17 18 18 17 19 21 20 19 17 16 18 19 17 17 18 16 14 12 11 11 12 9 7 7 8 12 12 11 11 12
11 11 14 17 19 22 23 24 24 25 28 28 26 25 23 23 22 20 18 17 14 12 11 11 11 10 9 9 10 11 11 12 12 12 12 14 17 14 10 11 12 14 13 11 14 14 12 15 16 14 15 17 16 15 14 14 17 17 16 17 17 18 19 18 17 18 18 18 18 17 17 15 14 11 11 12 10 9 8 9 11 12 10 10 11
10 10 11 14 17 19 20 21 22 23 25 25 23 23 23 23 23 23 22 21 18 15 13 12 12 12 12 11 11 11 10 10 12 15 17 17 18 17 13 11 12 13 13 13 16 14 12 15 16 15 15 15 15 15 16 16 18 17 16 16 15 15 17 17 17 17 17 19 19 16 16 16 14 12 11 10 9 9 9 9 11 12 10 10 11
9 9 10 11 14 16 16 16 18 19 21 22 21 22 22 22 22 24 24 22 20 18 16 14 13 12 12 12 12 13 11 11 14 19 22 19 17 18 16 12 11 11 12 15 16 13 13 15 17 16 15 14 15 18 19 18 17 17 16 16 14 13 14 15 15 15 17 19 17 14 15 18 18 17 14 11 10 10 10 10 11 9 9 11 11
9 10 11 13 15 16 15 15 16 17 18 19 19 20 21 20 21 24 24 23 22 19 16 16 15 13 12 11 12 13 12 12 14 17 19 18 16 15 14 14 13 11 10 13 15 14 14 16 17 17 15 14 17 18 17 16 15 15 14 14 14 13 13 15 14 14 17 18 18 17 18 18 18 20 17 12 11 11 10 13 14 10 8 10 10
11 10 12 15 18 18 17 16 17 17 18 18 19 19 19 19 20 24 24 22 23 20 17 16 16 14 12 11 12 13 13 12 12 13 15 17 19 18 14 13 14 11 9 13 16 16 16 16 16 16 15 15 17 15 14 15 15 13 11 12 13 13 14 16 15 14 16 17 18 18 17 15 15 19 19 15 13 12 11 13 16 13 10 8 8
11 11 13 16 19 20 20 19 19 19 19 19 20 19 18 18 18 21 22 21 21 21 19 18 16 14 12 10 9 11 12 13 14 15 16 18 21 22 19 15 14 12 11 14 17 17 16 15 15 14 14 15 15 14 13 14 13 12 11 11 13 14 15 17 16 14 15 15 16 15 14 14 13 17 20 18 16 14 12 14 16 15 13 9 7
12 13 15 18 21 21 21 20 20 20 19 19 20 19 18 17 17 19 21 22 22 22 21 20 18 16 13 12 10 10 11 11 13 15 17 18 19 21 20 16 13 12 13 15 16 16 15 15 15 15 14 14 14 14 14 14 14 14 14 14 14 14 15 16 15 14 13 14 14 14 14 14 13 15 19 19 18 16 14 15 16 16 15 12 9
12 13 14 18 21 21 21 20 20 21 21 20 20 19 19 19 18 18 19 21 22 22 20 20 18 16 15 14 13 12 12 11 12 14 16 17 18 19 18 16 14 13 14 15 15 15 14 14 15 15 14 14 15 16 16 14 13 14 16 17 15 14 14 14 14 12 12 12 14 15 15 14 13 13 16 18 19 18 16 15 16 16 15 14 13
12 11 12 16 19 19 19 19 20 20 20 21 21 21 21 20 19 19 19 20 21 21 21 20 18 16 16 15 15 13 12 12 13 14 16 17 17 18 18 16 14 13 13 14 14 13 14 14 13 13 14 13 15 16 15 13 12 13 16 16 13 13 13 13 12 11 11 11 12 13 13 13 13 13 16 17 18 18 17 16 16 16 15 15 14
11 10 12 15 17 18 19 19 19 19 20 22 23 23 23 22 21 21 21 21 21 20 21 21 19 18 17 18 17 15 13 12 13 14 16 18 18 18 17 16 15 13 12 13 13 12 12 13 12 13 13 13 14 14 13 11 11 12 13 13 12 12 12 12 11 11 11 11 12 13 12 11 13 16 17 15 15 17 17 16 16 15 16 16 16
10 10 11 14 16 17 19 20 20 20 21 23 23 24 24 24 22 21 21 21 20 19 19 19 19 19 19 19 18 15 13 13 13 14 15 17 17 16 16 15 15 14 12 12 13 12 12 12 12 13 14 13 13 14 12 12 11 12 12 11 11 12 12 11 11 11 11 11 13 14 12 13 16 19 19 16 15 16 16 16 16 16 15 17 18
10 10 12 14 15 17 18 19 20 20 21 22 22 23 24 23 22 21 21 21 20 19 19 19 19 20 20 19 19 17 13 12 13 14 15 16 16 15 14 15 15 13 11 11 12 12 12 12 12 13 14 12 12 12 12 11 12 12 11 11 12 12 13 12 12 12 12 12 14 14 13 15 17 18 18 17 17 16 15 15 15 18 18 17 18
10 11 13 15 16 17 18 19 20 20 21 21 21 22 22 23 23 21 21 22 20 19 20 20 20 20 20 20 20 18 15 12 13 14 15 15 16 15 14 15 15 12 10 11 11 11 12 12 12 13 13 11 11 11 11 11 11 11 11 11 11 12 13 13 12 12 12 12 14 14 14 14 14 14 15 17 18 16 16 15 14 18 20 19 19
10 11 13 15 16 17 18 18 18 19 20 20 20 20 20 21 23 22 22 22 20 20 21 21 21 21 20 20 21 20 18 16 13 14 15 15 16 16 16 15 14 12 11 10 10 11 12 12 12 13 12 12 12 12 12 11 11 11 11 10 10 11 12 12 12 12 12 13 13 14 14 14 13 14 15 16 18 18 16 15 15 16 18 18 22
11 11 12 14 15 16 18 18 18 18 19 19 19 19 19 19 21 22 22 22 21 20 21 21 20 20 20 20 21 22 21 20 16 13 15 16 15 15 15 14 12 12 11 10 10 11 12 13 13 13 12 12 12 12 11 10 10 11 11 9 9 10 10 11 12 11 12 12 13 13 13 13 13 15 16 15 17 19 18 16 16 17 16 17 22
10 10 11 12 14 16 18 18 19 19 19 19 18 19 19 20 20 21 22 22 22 21 21 21 20 20 20 20 21 21 21 21 20 16 13 14 13 12 12 12 12 11 11 10 11 12 13 13 14 15 14 13 12 12 11 10 9 10 10 10 9 9 9 10 11 11 11 11 12 13 13 12 13 14 15 16 16 19 21 19 18 18 16 16 19
9 10 10 11 12 14 17 18 18 19 20 20 19 19 20 20 20 21 22 22 22 22 22 21 21 21 21 22 22 21 21 21 22 19 14 11 12 12 11 12 13 11 9 10 11 13 14 14 14 16 15 12 12 12 11 10 10 9 9 10 10 10 10 10 10 10 10 10 13 16 14 11 13 14 15 17 17 18 20 19 18 19 17 16 17
9 10 10 10 11 13 15 16 16 17 19 19 19 20 20 20 21 21 22 22 23 23 22 22 22 22 23 22 22 22 23 23 23 21 18 14 12 12 11 11 12 10 9 9 9 12 16 15 14 14 13 11 12 13 11 10 10 9 9 9 9 10 9 10 10 10 10 11 13 16 14 11 12 14 17 19 19 18 18 16 17 19 19 17 14
9 9 9 9 11 12 13 14 15 16 17 18 19 20 21 22 22 22 22 22 22 23 24 23 23 23 24 23 23 24 25 25 25 23 20 17 12 10 9 10 10 9 9 9 8 11 15 16 16 16 15 14 14 13 11 10 10 9 9 8 8 8 9 9 9 10 10 11 12 13 13 13 13 14 17 18 17 17 18 17 17 19 19 17 13
8 8 8 10 11 12 13 14 15 16 17 17 18 20 21 23 23 23 22 22 21 22 23 24 24 23 24 24 24 26 26 26 27 27 23 20 15 10 8 9 10 10 11 11 10 11 14 16 17 16 16 17 15 12 10 10 10 10 9 8 7 8 9 8 9 10 10 11 11 11 11 12 13 14 15 16 15 16 18 18 18 18 19 19 16
8 8 8 9 11 12 13 14 15 16 17 18 19 19 20 22 24 25 25 24 22 21 22 24 25 23 23 24 25 26 27 27 28 29 26 22 18 13 10 8 8 9 10 11 11 11 14 15 15 14 15 17 15 12 11 10 10 10 10 10 9 8 9 9 9 9 10 10 10 11 10 10 11 13 13 14 16 16 17 18 18 18 19 20 19
8 8 8 9 10 11 12 14 15 16 18 19 20 20 21 23 25 27 28 26 23 21 21 23 25 24 23 24 24 25 27 27 27 29 29 26 23 18 14 10 7 6 6 7 8 10 12 13 13 13 14 15 14 13 12 11 11 12 11 11 11 11 10 10 10 10 10 10 10 10 10 11 12 13 13 13 15 15 16 17 18 18 18 19 20
7 7 8 9 11 11 13 15 16 18 20 22 23 23 23 25 26 28 29 27 24 22 21 23 25 24 23 23 23 24 25 25 25 27 28 28 26 22 18 14 10 7 5 4 3 5 7 9 10 11 12 13 14 14 13 12 12 13 13 13 14 14 13 11 11 11 11 12 11 11 12 13 13 13 13 13 14 16 16 17 17 16 16 17 17
6 7 8 10 10 11 13 15 17 20 21 22 23 24 25 25 26 27 27 27 25 24 23 23 24 24 22 22 23 23 23 23 22 23 24 24 24 24 21 17 15 14 12 10 8 6 4 4 5 6 9 12 13 14 14 14 15 15 15 15 16 17 16 14 14 14 14 14 14 13 14 15 14 14 15 15 16 17 16 15 14 12 11 11 10
5 6 8 9 10 10 13 15 17 19 20 21 23 24 25 25 26 26 26 25 25 25 25 24 24 24 22 22 22 22 22 23 22 21 21 20 21 23 22 19 17 16 15 13 11 10 8 5 3 2 4 8 12 13 14 15 16 16 16 17 18 18 18 17 17 17 17 16 15 15 15 16 17 17 17 16 16 16 16 15 13 12 10 8 6
7 8 10 11 13 13 15 18 19 19 19 21 22 24 24 25 26 27 25 24 23 24 25 24 23 23 22 21 21 21 21 22 22 22 21 20 19 19 20 20 18 17 17 16 14 13 12 10 7 4 2 3 7 10 12 14 15 17 18 18 18 17 17 18 18 18 18 18 17 17 16 17 18 18 17 16 16 16 17 18 19 20 20 20 19
10 12 14 15 17 16 17 19 19 19 21 21 22 23 24 23 25 25 24 22 22 24 25 24 23 22 20 19 19 20 20 21 22 22 21 20 18 17 17 19 20 20 19 18 16 14 13 13 12 10 7 3 2 5 9 13 14 17 19 18 18 18 18 17 17 17 18 19 19 18 18 18 19 18 18 18 17 17 20 23 24 25 25 25 25
11 13 15 16 17 17 18 18 18 20 22 22 23 24 24 23 24 24 22 21 22 23 24 25 24 23 21 18 18 19 20 21 21 21 20 19 19 17 16 17 20 23 23 21 19 18 17 16 15 14 12 9 6 1 6 11 14 16 18 19 19 20 19 18 17 17 17 17 17 17 19 20 20 20 20 20 19 19 21 22 22 23 25 25 25
14 16 16 16 16 16 16 15 16 19 21 23 24 23 23 24 25 25 23 22 22 23 24 25 25 25 23 20 18 19 20 20 20 20 19 19 17 17 17 17 18 21 24 25 25 25 25 23 19 17 15 13 12 7 1 8 12 14 17 19 20 22 21 20 18 16 15 14 14 15 17 19 21 22 23 23 23 21 20 20 21 22 25 25 25
15 16 16 16 16 16 14 14 16 19 20 23 23 21 22 24 25 24 24 22 21 23 25 25 25 25 25 23 22 22 22 23 23 22 22 21 19 18 17 17 17 19 21 25 27 28 29 29 27 25 21 18 16 12 6 6 8 11 14 17 19 21 22 22 20 18 16 16 14 15 16 19 22 25 24 24 23 21 20 21 21 22 23 25 25
16 15 15 16 17 18 17 15 16 17 19 22 22 20 21 22 23 24 24 21 20 22 25 26 25 24 24 24 23 23 23 24 23 22 22 22 22 22 21 19 19 21 21 22 25 27 28 29 29 29 27 24 21 16 12 12 10 6 8 11 15 19 22 23 23 22 21 20 18 16 15 16 19 21 20 19 19 19 20 20 20 20 22 24 24
14 13 14 16 17 17 17 16 15 15 17 21 22 20 21 21 23 26 26 22 19 21 24 25 25 25 24 22 22 22 23 23 20 18 17 18 19 22 23 21 20 20 20 21 23 24 26 27 27 27 26 26 23 19 17 20 19 13 8 8 11 15 19 22 24 26 26 25 24 22 19 16 17 17 16 15 16 17 18 19 20 21 22 22 22
11 12 15 16 17 17 18 17 16 15 16 19 21 20 21 22 24 26 27 24 21 21 22 23 24 25 24 23 22 21 22 22 21 19 18 17 17 17 19 20 20 19 19 19 20 21 23 24 24 24 22 21 20 20 21 24 23 19 16 14 13 15 19 23 26 28 28 28 28 27 24 21 21 21 21 21 21 21 22 23 23 22 21 20 20
11 13 15 16 16 17 18 19 17 15 15 18 20 20 21 22 23 24 26 25 22 21 21 22 22 23 23 23 22 21 20 20 21 20 18 16 17 17 17 18 19 19 17 16 17 19 20 20 20 21 20 20 20 21 23 25 24 22 20 18 18 18 20 24 27 29 29 29 29 28 27 26 26 26 26 27 27 25 24 23 22 20 19 17 17
12 13 14 16 16 16 17 19 18 16 15 16 17 18 19 20 21 22 23 24 23 22 21 21 20 20 21 22 22 22 21 20 19 20 18 15 15 15 16 16 17 17 16 15 15 17 18 18 18 19 19 21 21 21 23 24 24 24 22 21 21 22 23 26 28 29 28 28 28 27 27 27 27 27 27 28 27 25 22 20 18 17 15 14 12
11 12 13 14 15 15 16 17 18 18 17 16 16 17 16 18 19 21 21 22 23 22 21 20 19 19 19 20 20 21 21 20 20 20 20 18 15 13 14 16 16 15 15 14 14 15 16 18 17 16 17 20 21 20 21 21 22 24 24 24 24 25 26 28 30 29 28 27 27 27 27 27 27 26 26 26 25 22 20 18 15 13 12 11 10
10 10 11 13 14 14 15 16 17 19 20 19 18 18 16 16 17 18 20 21 22 22 21 20 19 19 18 18 18 18 18 19 19 19 20 19 17 13 12 14 16 14 13 13 12 12 14 16 16 15 15 18 20 20 19 18 19 21 22 22 23 24 25 27 28 27 27 27 26 26 25 25 24 24 23 23 21 19 18 16 14 13 11 10 10
9 8 9 12 14 15 16 16 17 19 20 20 20 20 18 17 15 16 18 20 21 21 20 19 18 18 19 18 17 16 16 15 15 16 17 18 18 15 13 14 16 16 15 13 12 11 11 12 14 15 15 15 16 18 18 16 16 18 20 21 22 22 23 23 23 22 22 21 20 20 19 18 18 18 18 19 18 17 16 16 15 15 15 15 15
8 7 8 11 13 15 15 15 16 18 19 19 19 20 20 19 16 14 15 18 20 18 17 17 17 18 19 19 17 14 13 13 13 13 12 13 14 15 15 15 15 16 16 15 15 13 11 9 10 12 13 13 13 14 14 15 16 17 18 19 19 19 19 18 16 16 16 16 16 16 15 14 14 14 14 14 14 14 15 15 16 18 18 18 18
7 7 8 9 11 14 15 15 15 16 17 17 17 18 18 19 17 14 13 16 18 17 15 16 16 16 17 19 18 16 13 11 11 11 10 10 10 11 13 14 13 13 14 16 16 16 14 10 7 7 8 10 11 11 11 12 13 13 13 14 14 14 14 13 12 12 14 15 15 15 15 14 14 14 14 14 14 14 15 16 17 18 18 18 19
Wind_Direction
36 33 11 341 324 329 342 4 20 25 31 30 17 11 32 39 334 293 268 226 245 253 247 250 255 250 244 243 241 243 246 247 249 252 250 252 252 241 230 241 246 245 248 247 242 243 241 237 236 228 220 220 219 216 212 210 214 214 202 193 192 186 183 187 185 169 152 152 152 163 180 191 206 208 201 194 190 194 194 190 191 188 190 195 190
29 23 10 351 339 339 355 23 30 27 28 29 18 0 5 6 4 8 3 59 211 243 238 246 250 247 245 241 240 245 249 249 249 249 247 256 264 259 247 253 256 251 246 245 246 245 242 234 232 231 224 220 218 215 213 209 211 214 202 191 189 189 189 185 177 166 160 165 159 149 150 154 192 204 198 195 195 199 203 200 197 197 196 195 183
11 18 16 2 350 350 12 34 38 34 26 20 12 356 341 332 344 12 1 272 197 232 245 252 251 249 250 250 255 257 261 263 257 263 263 264 280 283 273 272 269 260 249 247 254 252 245 236 233 233 226 219 217 213 210 205 204 206 204 197 186 183 189 193 188 180 172 169 164 162 157 140 173 203 194 193 198 202 208 206 202 200 196 189 178
23 26 23 15 8 10 24 39 44 45 39 30 24 9 348 335 334 340 346 186 181 284 278 254 248 247 246 246 251 253 264 272 267 287 279 263 283 291 284 285 279 266 253 246 256 255 243 240 239 235 228 222 220 216 208 202 201 203 208 206 193 179 177 192 200 195 176 165 163 175 179 174 191 184 173 187 200 205 211 210 206 202 194 186 182
34 32 30 27 26 29 33 42 51 52 50 43 38 31 14 355 339 326 317 302 285 360 332 262 236 229 227 228 232 231 225 221 231 258 257 241 258 276 280 287 281 268 256 247 256 253 238 240 244 239 233 226 221 216 206 201 204 203 207 208 201 194 184 187 198 197 188 179 174 164 164 197 204 161 152 176 198 204 211 209 206 203 196 188 186
33 33 35 32 28 35 37 39 44 42 42 41 39 34 27 21 8 353 333 311 300 321 314 263 232 222 214 209 212 215 201 204 228 253 253 240 244 256 263 268 263 259 263 260 257 251 235 232 239 239 235 226 219 214 203 200 203 200 203 203 197 198 193 188 194 197 198 196 193 190 186 201 170 159 158 163 182 194 203 204 203 203 199 192 189
30 29 31 30 26 30 32 33 31 26 26 26 26 23 19 19 12 7 2 342 323 318 296 260 246 238 232 231 233 234 220 217 234 244 246 250 249 249 256 257 247 246 262 262 248 248 242 231 229 230 226 219 213 206 200 204 208 204 206 208 204 205 203 196 194 194 198 203 203 204 206 200 171 166 173 162 157 178 188 195 202 201 198 195 195
33 30 29 29 26 27 25 24 25 22 24 22 20 18 15 17 13 5 359 347 336 316 299 290 283 268 253 252 256 258 252 239 236 232 241 251 248 242 250 257 250 247 257 251 235 241 246 235 220 220 219 213 208 205 207 214 216 207 207 218 220 218 216 209 200 195 196 201 202 203 205 197 182 180 186 178 171 173 171 187 199 197 197 197 198
35 31 28 26 24 23 18 18 22 22 23 23 21 20 15 12 13 10 2 352 340 320 305 299 290 279 257 245 253 265 267 246 231 240 249 251 244 235 242 252 249 245 246 239 225 228 239 235 219 216 213 207 206 210 217 218 216 209 202 212 219 217 218 215 205 202 202 201 201 200 199 189 185 188 192 184 175 173 174 185 184 180 193 197 196
33 31 28 24 21 19 14 16 21 22 21 22 22 21 19 15 9 7 6 3 356 342 326 308 290 273 251 241 249 263 265 245 229 240 247 250 246 233 232 245 246 243 238 235 228 218 229 234 223 216 211 206 207 214 223 221 217 215 210 214 218 217 216 211 205 209 209 206 203 200 195 185 182 187 191 186 175 176 183 186 182 178 185 187 189
27 28 25 21 19 18 15 14 14 15 17 20 21 18 16 15 10 6 2 360 357 350 343 326 305 280 256 245 248 254 255 243 234 238 239 243 246 237 228 233 240 244 239 236 230 216 217 219 211 213 215 213 211 214 223 224 218 217 217 220 218 215 217 212 210 216 215 212 209 203 200 194 190 191 189 185 183 183 180 180 184 185 183 178 180
25 27 22 16 16 15 13 10 7 8 12 14 15 14 14 13 9 7 3 360 356 347 340 331 319 305 285 269 258 251 244 240 244 251 248 245 246 243 234 226 231 241 236 234 235 223 214 209 202 207 218 221 223 221 223 223 219 216 216 219 216 216 223 220 215 218 217 217 216 210 208 207 204 201 190 188 193 189 181 177 178 182 180 171 171
26 26 22 18 18 14 11 8 4 4 6 7 9 12 13 11 10 9 4 1 359 351 342 332 325 321 310 295 282 272 259 246 248 256 252 247 248 251 250 234 226 230 227 232 239 229 216 207 198 203 214 221 227 228 228 226 220 217 216 218 216 216 222 220 216 217 218 220 219 215 215 215 215 213 203 199 200 192 189 180 171 177 176 163 165
29 25 23 20 17 16 13 8 4 3 1 2 5 8 11 10 9 11 8 3 1 356 348 339 331 328 322 309 296 292 284 261 248 251 251 248 253 260 262 252 236 230 227 234 237 226 212 201 196 205 212 212 223 229 232 233 228 222 219 220 219 218 220 221 221 221 223 223 217 212 216 218 220 222 217 209 202 197 196 179 163 173 178 166 167
28 25 23 20 16 15 13 9 6 3 0 0 1 4 9 11 9 13 12 7 3 357 347 340 334 331 329 319 307 301 293 271 256 259 261 261 264 267 268 264 253 238 226 233 234 222 208 198 198 209 210 213 228 231 225 227 230 228 225 223 224 225 227 228 227 224 226 226 220 217 220 219 221 224 221 216 210 206 199 181 166 166 175 172 173
23 22 21 20 18 16 14 10 7 3 0 359 359 359 2 4 8 13 13 8 6 1 349 340 335 332 331 323 313 305 295 281 268 264 261 258 258 256 257 259 255 243 230 233 233 225 212 201 202 209 209 218 233 230 218 221 227 226 224 223 224 226 229 231 230 226 224 223 223 223 222 221 223 225 222 219 216 210 201 191 181 174 172 173 181
19 20 20 18 17 16 14 11 6 1 358 355 355 355 356 358 3 10 11 9 8 4 358 349 340 335 331 322 312 299 288 281 274 268 261 258 260 257 252 251 252 245 236 234 233 230 221 206 202 207 211 219 230 229 222 226 232 231 228 226 225 226 230 232 231 228 222 220 221 219 219 223 224 224 224 223 222 216 206 201 197 192 186 179 180
19 20 19 17 15 13 12 9 4 360 356 352 350 350 353 356 357 2 6 6 6 4 1 357 350 343 337 328 316 299 286 276 268 265 262 259 260 257 249 247 250 243 233 231 229 228 223 207 203 209 211 215 225 228 228 231 236 239 239 236 231 228 229 230 230 228 224 221 221 220 222 225 224 224 227 226 225 220 211 207 208 206 203 197 188
19 18 16 15 13 9 6 5 3 2 360 354 351 351 352 356 356 356 357 359 4 5 2 359 354 346 338 330 321 307 296 285 270 262 259 252 250 251 247 245 249 240 229 224 219 219 215 204 202 208 211 216 224 229 234 237 233 230 233 234 232 229 228 227 227 225 222 220 223 226 227 224 222 225 227 228 228 224 215 210 212 211 211 209 203
18 15 15 13 10 5 1 0 360 0 0 358 358 357 357 358 358 357 353 352 359 4 3 359 355 348 340 333 325 311 298 290 276 263 258 251 249 251 248 246 247 239 228 222 214 210 205 198 196 202 207 211 218 225 232 234 224 216 223 228 226 223 224 224 222 219 216 215 220 226 227 224 223 224 225 227 229 226 218 212 213 214 214 213 211
18 14 13 9 5 1 359 358 358 357 359 2 4 2 1 1 359 356 355 351 351 356 358 355 351 346 343 340 333 317 297 287 278 267 260 255 252 250 248 251 249 237 228 223 215 206 201 196 195 201 205 206 214 223 223 220 217 214 217 223 222 217 217 219 216 213 211 211 217 222 221 221 223 223 222 222 222 222 217 213 215 214 214 214 213
16 12 10 6 4 2 359 358 359 359 0 4 6 5 3 2 358 355 354 351 348 347 347 346 343 341 341 344 341 329 307 288 278 272 265 258 254 251 250 251 247 237 230 225 216 208 200 193 195 204 207 205 214 227 223 211 210 212 213 219 221 217 215 214 213 213 211 211 219 221 216 219 224 222 219 218 217 217 213 212 214 213 213 216 214
14 11 11 9 6 5 3 0 0 2 2 3 6 7 4 0 357 355 353 350 348 346 344 343 341 340 341 344 345 340 327 302 283 275 271 264 258 254 249 246 243 239 233 225 218 211 201 193 197 208 209 202 206 222 227 216 208 209 214 219 219 217 216 215 214 214 212 212 217 216 212 219 223 218 215 216 217 214 210 209 210 211 215 219 215
17 15 14 13 11 9 7 4 2 3 3 3 4 4 4 2 359 356 353 351 349 348 348 346 344 343 344 346 348 348 343 325 300 284 276 271 265 258 254 251 249 244 236 228 221 216 208 198 199 207 207 199 198 203 211 213 209 209 213 216 217 215 216 218 218 218 215 212 214 213 210 213 215 210 209 213 214 212 210 209 208 210 213 216 216
22 21 17 14 13 11 8 5 3 3 3 3 2 1 1 1 1 359 355 354 353 351 350 350 348 347 347 350 353 354 352 345 324 295 279 277 275 268 262 259 256 249 242 235 227 221 215 206 203 204 201 199 199 197 199 204 207 208 209 212 216 216 217 220 221 219 215 211 213 213 209 207 207 208 208 210 213 214 211 209 211 211 210 214 220
25 22 18 15 14 11 8 6 4 5 4 3 1 360 358 358 1 2 360 357 356 355 354 354 353 351 349 351 356 358 357 356 347 319 289 281 282 278 272 267 259 252 247 241 233 227 220 213 208 203 198 197 200 200 201 202 203 207 210 211 216 219 221 223 223 219 215 214 214 214 213 209 208 211 211 209 210 213 213 211 212 213 209 212 220
30 25 19 17 15 12 10 7 6 6 5 4 2 360 358 356 358 2 4 2 359 358 358 358 356 354 352 351 354 357 357 358 360 349 313 285 278 282 283 275 263 255 251 246 240 232 226 221 214 206 198 193 194 197 200 201 201 207 212 212 216 222 225 225 225 221 217 216 216 217 218 215 214 214 212 208 207 210 215 215 213 214 212 210 216
37 29 23 20 15 12 10 8 8 7 6 6 5 2 0 359 359 1 5 6 3 1 1 1 359 358 356 353 352 354 356 359 5 5 351 317 295 296 301 287 273 266 260 255 247 237 233 229 220 211 202 194 192 194 196 200 202 205 209 213 219 224 226 227 225 224 222 220 222 225 223 218 219 216 210 211 210 211 215 216 214 215 215 212 215
41 32 26 20 15 11 8 7 6 6 6 7 7 6 5 4 3 3 6 8 8 6 5 4 4 2 359 356 355 356 358 1 7 10 9 357 327 310 307 294 282 279 273 264 253 244 239 231 220 213 205 198 199 201 201 203 204 207 209 212 218 223 225 226 225 224 222 218 222 227 226 222 222 219 216 218 218 214 216 218 217 218 216 215 214
41 32 26 21 17 10 6 5 5 4 5 6 7 8 8 7 6 6 7 9 10 11 9 7 6 4 1 359 360 1 1 2 7 11 12 10 353 325 308 297 291 295 290 277 262 252 244 231 220 217 213 209 208 209 209 208 207 210 210 206 211 217 218 221 222 220 220 216 215 222 226 227 229 226 222 224 225 223 223 224 226 226 223 218 207
41 32 26 22 18 11 7 6 3 1 2 3 5 8 9 10 10 9 9 10 12 13 12 10 7 4 3 4 4 4 5 4 7 11 14 14 10 356 335 319 313 310 302 290 278 262 246 231 224 223 221 218 215 212 210 208 208 212 214 208 209 216 216 217 216 215 215 214 210 210 215 221 225 225 225 227 229 229 228 228 231 233 232 228 217
42 34 27 22 18 12 7 3 360 358 359 1 5 8 11 12 13 14 15 15 14 13 13 13 10 5 5 7 6 6 8 8 9 11 14 16 18 18 10 350 331 320 307 296 284 266 249 236 227 223 223 221 219 216 211 209 210 214 219 219 214 212 213 214 212 210 209 208 205 203 203 206 212 217 223 226 227 227 227 228 230 231 232 233 229
46 37 29 25 21 13 8 4 1 359 1 5 8 11 14 15 17 19 20 19 17 14 14 16 13 8 7 8 8 9 10 10 11 14 17 18 19 21 21 17 2 335 315 296 278 261 251 243 230 221 222 223 222 218 213 212 214 217 225 229 223 215 211 209 208 206 203 201 198 197 198 202 206 208 213 219 221 220 221 223 227 229 230 231 231
46 37 29 27 22 15 11 9 8 7 11 15 17 18 19 20 21 22 23 21 19 17 17 18 15 12 10 9 9 11 12 11 12 16 20 21 22 22 23 24 23 14 6 357 322 277 258 250 238 227 224 224 223 221 218 218 221 224 229 234 233 228 219 209 206 205 204 205 203 198 197 199 199 200 204 209 211 212 212 213 216 220 222 228 231
38 30 25 23 18 12 11 11 12 15 18 20 22 23 23 22 21 22 22 21 21 20 20 20 18 15 14 12 11 13 13 13 13 14 18 22 24 26 26 24 25 28 31 32 28 13 338 294 265 244 234 231 230 227 223 224 226 229 231 232 234 233 225 216 215 215 214 215 212 206 203 201 201 202 204 205 205 202 195 191 191 191 198 215 228
35 27 22 20 14 10 14 16 17 20 21 20 22 25 25 23 23 23 21 20 21 22 21 21 20 17 16 15 15 15 15 16 15 17 19 20 23 29 31 29 28 31 33 34 33 30 22 12 346 283 252 244 240 234 228 227 227 226 226 228 230 228 222 218 217 215 214 212 209 205 205 206 205 204 202 202 201 192 178 168 159 145 138 138 126
34 33 29 26 22 19 21 22 22 23 22 20 22 25 25 23 23 22 21 19 20 22 22 22 21 19 18 19 19 19 19 19 19 21 22 21 22 27 32 35 36 36 38 38 38 38 37 39 43 39 5 280 255 237 225 223 222 219 219 221 218 213 210 210 208 205 203 202 200 200 202 202 202 199 193 191 192 182 165 153 143 131 124 117 111
32 32 29 25 23 21 22 25 26 27 26 25 25 25 23 20 19 19 18 18 20 22 22 23 24 23 21 22 23 24 25 24 25 25 25 25 26 27 32 41 46 48 48 46 45 44 42 42 44 44 45 38 307 238 213 207 208 209 211 211 206 199 196 196 194 192 191 193 195 195 195 196 197 193 185 181 183 174 158 149 142 133 125 119 118
33 27 21 17 19 22 25 27 28 29 30 30 29 28 24 19 16 15 15 15 19 22 23 25 27 29 28 26 27 30 31 31 30 29 28 28 30 32 36 44 52 57 58 56 53 52 49 44 40 40 45 51 43 2 204 195 195 198 199 200 196 189 184 181 178 178 178 181 186 187 188 192 190 182 176 173 174 171 163 157 151 143 132 126 126
27 21 16 16 19 23 23 22 25 31 33 31 29 28 25 20 17 14 12 14 20 25 27 28 30 34 37 37 36 36 37 37 36 35 35 33 31 34 39 43 50 57 60 59 57 57 55 52 48 45 44 45 42 35 140 184 187 189 189 191 188 181 174 167 162 161 159 159 165 170 175 181 178 171 170 169 168 171 170 166 161 154 144 139 138
22 18 15 17 22 25 24 23 30 36 34 31 29 26 23 21 18 14 13 18 25 30 31 31 32 35 40 44 47 47 47 47 46 45 45 44 40 37 38 41 46 52 56 56 55 55 54 53 54 54 52 49 45 41 62 133 162 176 179 180 179 173 168 159 149 143 139 138 143 149 155 165 168 167 168 170 171 174 174 168 164 160 153 148 145
21 20 19 20 24 26 26 27 34 38 35 32 31 27 22 21 18 16 18 24 31 34 33 32 32 34 37 41 44 44 44 45 45 43 44 47 49 48 46 44 46 49 52 52 52 52 51 50 52 54 55 55 52 49 64 89 100 125 162 167 161 156 158 156 146 133 125 122 123 126 133 150 161 163 165 167 168 170 168 161 157 153 149 146 143
20 19 22 25 25 23 23 27 34 39 37 35 34 30 25 22 20 21 25 30 34 36 35 33 33 33 33 34 34 33 35 38 38 36 37 40 45 50 50 47 44 45 46 47 48 49 49 48 47 49 52 56 56 53 61 75 82 88 103 126 133 135 142 145 137 125 118 115 113 114 118 131 142 144 144 144 145 147 145 138 136 136 137 137 137
23 24 29 32 27 23 24 28 34 39 39 36 36 33 28 24 22 23 27 32 35 37 35 33 32 32 31 31 30 30 32 37 40 40 39 38 39 43 47 46 44 44 44 43 43 46 48 47 44 43 45 50 53 55 61 68 74 80 88 97 108 116 121 122 117 112 110 110 110 111 115 120 123 123 122 122 121 122 122 123 124 127 129 131 132
32 36 38 36 31 26 25 27 31 38 40 36 35 34 29 26 24 23 25 29 33 35 36 33 30 30 29 29 29 29 30 35 39 41 39 36 37 39 41 43 44 44 44 42 41 44 47 47 44 41 41 46 52 58 64 70 74 78 84 93 102 108 112 112 108 106 107 109 110 112 114 115 116 117 117 115 113 114 116 118 120 122 123 125 126
41 42 41 40 36 31 28 27 29 35 38 35 33 32 30 28 26 23 23 25 26 28 31 31 29 28 27 26 26 27 28 30 35 39 40 36 34 36 38 39 41 41 42 43 42 42 44 45 45 42 42 49 58 63 68 74 80 84 90 95 100 104 108 109 108 107 109 110 112 114 114 114 114 115 115 114 113 114 116 116 115 115 113 113 116
47 44 43 42 37 32 29 28 28 32 34 32 29 28 28 29 27 24 22 23 22 21 21 22 24 25 24 23 23 22 24 26 29 35 39 38 34 32 33 36 37 36 36 39 41 40 39 41 43 44 46 52 59 66 72 78 84 89 94 99 102 103 104 104 105 105 105 105 107 108 108 108 108 110 111 113 114 115 115 112 107 100 94 94 102
52 48 48 44 37 32 30 28 28 31 32 30 28 24 22 23 26 24 22 21 20 19 18 17 18 20 21 21 22 21 21 23 26 31 35 37 37 34 32 34 35 34 33 33 36 39 41 41 43 47 52 54 56 60 68 77 88 95 99 101 103 103 102 100 100 101 101 100 99 97 96 95 95 95 96 97 99 100 101 102 102 99 96 98 106
52 51 51 45 38 34 32 30 28 28 28 26 25 23 20 18 20 22 22 20 18 18 18 16 16 20 21 20 20 20 19 20 24 29 34 37 38 40 42 41 37 34 33 32 33 36 39 42 45 49 54 57 57 58 60 69 85 98 103 102 102 102 101 99 99 101 100 97 91 88 85 83 80 77 76 77 80 83 89 95 102 110 115 118 121
53 55 55 47 39 34 35 34 31 29 25 21 19 18 18 17 16 17 20 20 18 16 16 15 15 18 20 20 19 18 17 18 21 27 32 36 36 38 43 45 41 35 33 33 34 33 31 34 43 51 56 61 63 64 66 71 79 88 93 94 94 93 92 92 94 96 96 94 91 90 90 90 88 84 82 83 85 90 97 103 109 115 119 123 126
57 60 54 44 36 32 32 34 33 31 26 21 17 14 12 14 15 16 18 20 19 15 13 14 15 17 19 20 20 18 16 16 17 21 26 31 32 33 37 42 42 39 36 34 34 32 28 26 32 43 53 62 67 70 71 75 80 82 84 85 86 85 84 85 91 97 98 99 101 103 104 105 106 105 106 108 110 112 115 117 118 118 120 122 123